START_TIME,STEP,MOV.,A46,t_acc.,A13,t_acc.,M47,t_acc.,A17,t_acc.,A28,t_acc.,M38,t_acc.
1979-08-03 09:00:24.250 ,0,0,,0,3.,4.8,1.,4.8,,0,1.,4.8,0.,4.8
1979-08-03 09:00:29.050 ,0,0,,0,0.,4.8,0.,4.8,,0,0.,4.8,3.,4.8
1979-08-03 09:00:33.850 ,0,0,,0,2.,4.8,0.,4.8,,0,0.,4.8,0.,4.8
1979-08-03 09:00:38.650 ,0,0,,0,0.,4.8,0.,4.8,,0,0.,4.8,0.,4.8
1979-08-03 09:00:43.450 ,0,0,,0,0.,4.8,0.,4.8,,0,0.,4.8,1.,4.8
1979-08-03 09:00:48.250 ,0,0,,0,0.,4.8,0.,4.8,,0,1.,4.8,0.,4.8
1979-08-03 09:00:53.050 ,0,0,,0,0.,4.8,0.,4.8,,0,0.,4.8,0.,4.8
1979-08-03 09:00:57.850 ,0,0,,0,2.,4.8,0.,4.8,,0,0.,4.8,0.,4.8
1979-08-03 09:01:02.650 ,0,0,,0,3.,4.8,0.,4.8,,0,0.,4.8,1.,4.8
1979-08-03 09:01:07.450 ,0,0,,0,2.,4.8,1.,4.8,,0,0.,4.8,2.,4.8
1979-08-03 09:01:12.250 ,0,0,,0,3.,4.8,0.,4.8,,0,0.,4.8,0.,4.8
1979-08-03 09:01:17.050 ,0,0,,0,2.,4.8,0.,4.8,,0,0.,4.8,0.,4.8
1979-08-03 09:01:21.850 ,0,0,,0,1.,4.8,0.,4.8,,0,0.,4.8,0.,4.8
1979-08-03 09:01:26.650 ,0,0,,0,0.,4.8,0.,4.8,,0,0.,4.8,0.,4.8
1979-08-03 09:01:31.450 ,0,0,,0,0.,4.8,0.,4.8,,0,0.,4.8,2.,4.8
1979-08-03 09:01:36.250 ,1,0,,0,0.,4.8,0.,4.8,,0,0.,4.8,0.,4.8
1979-08-03 09:01:41.050 ,1,0,,0,0.,4.8,0.,4.8,,0,0.,4.8,0.,4.8
1979-08-03 09:01:45.850 ,1,0,,0,0.,4.8,0.,4.8,,0,0.,4.8,0.,4.8
1979-08-03 09:01:50.650 ,1,0,,0,5.,4.8,0.,4.8,,0,0.,4.8,1.,4.8
1979-08-03 09:01:55.450 ,1,0,,0,6.,4.8,0.,4.8,,0,0.,4.8,0.,4.8
1979-08-03 09:02:00.250 ,1,0,,0,4.,4.8,0.,4.8,,0,0.,4.8,1.,4.8
1979-08-03 09:02:05.050 ,1,0,,0,3.,4.8,0.,4.8,,0,0.,4.8,2.,4.8
1979-08-03 09:02:09.850 ,1,0,,0,4.,4.8,2.,4.8,,0,0.,4.8,0.,4.8
1979-08-03 09:02:14.650 ,1,0,,0,0.,4.8,0.,4.8,,0,0.,4.8,0.,4.8
1979-08-03 09:02:19.450 ,1,0,,0,0.,4.8,0.,4.8,,0,0.,4.8,0.,4.8
1979-08-03 09:02:24.250 ,2,0,,0,0.,4.8,0.,4.8,,0,0.,4.8,1.,4.8
1979-08-03 09:02:29.050 ,2,0,,0,0.,4.8,0.,4.8,,0,0.,4.8,1.,4.8
1979-08-03 09:02:33.850 ,2,0,,0,1.,4.8,0.,4.8,,0,0.,4.8,1.,4.8
1979-08-03 09:02:38.650 ,2,0,,0,5.,4.8,0.,4.8,,0,0.,4.8,1.,4.8
1979-08-03 09:02:43.450 ,2,0,,0,1.,4.8,0.,4.8,,0,0.,4.8,0.,4.8
1979-08-03 09:02:48.250 ,2,0,,0,6.,4.8,0.,4.8,,0,0.,4.8,1.,4.8
1979-08-03 09:02:53.050 ,2,0,,0,3.,4.8,0.,4.8,,0,0.,4.8,0.,4.8
1979-08-03 09:02:57.850 ,2,0,,0,0.,4.8,0.,4.8,,0,0.,4.8,0.,4.8
1979-08-03 09:03:02.650 ,2,0,,0,0.,4.8,0.,4.8,,0,0.,4.8,0.,4.8
1979-08-03 09:03:07.450 ,2,0,,0,0.,4.8,0.,4.8,,0,0.,4.8,0.,4.8
1979-08-03 09:03:12.250 ,3,0,,0,0.,4.8,0.,4.8,,0,0.,4.8,0.,4.8
1979-08-03 09:03:17.050 ,3,0,,0,0.,4.8,0.,4.8,,0,0.,4.8,3.,4.8
1979-08-03 09:03:21.850 ,3,0,,0,2.,4.8,0.,4.8,,0,0.,4.8,0.,4.8
1979-08-03 09:03:26.650 ,3,0,,0,3.,4.8,0.,4.8,,0,0.,4.8,0.,4.8
1979-08-03 09:03:31.450 ,3,0,,0,2.,4.8,0.,4.8,,0,0.,4.8,1.,4.8
1979-08-03 09:03:36.250 ,3,0,,0,4.,4.8,0.,4.8,,0,0.,4.8,0.,4.8
1979-08-03 09:03:41.050 ,3,0,,0,1.,4.8,0.,4.8,,0,0.,4.8,0.,4.8
1979-08-03 09:03:45.850 ,3,0,,0,1.,4.8,0.,4.8,,0,0.,4.8,0.,4.8
1979-08-03 09:03:50.650 ,3,0,,0,0.,4.8,0.,4.8,,0,0.,4.8,0.,4.8
1979-08-03 09:03:55.450 ,3,0,,0,0.,4.8,0.,4.8,,0,0.,4.8,1.,4.8
1979-08-03 09:04:00.250 ,4,0,,0,0.,4.8,0.,4.8,,0,0.,4.8,0.,4.8
1979-08-03 09:04:05.050 ,4,0,,0,0.,4.8,0.,4.8,,0,0.,4.8,0.,4.8
1979-08-03 09:04:09.850 ,4,0,,0,1.,4.8,0.,4.8,,0,0.,4.8,0.,4.8
1979-08-03 09:04:14.650 ,4,0,,0,3.,4.8,0.,4.8,,0,0.,4.8,0.,4.8
1979-08-03 09:04:19.450 ,4,0,,0,2.,4.8,0.,4.8,,0,0.,4.8,1.,4.8
1979-08-03 09:04:24.250 ,4,0,,0,3.,4.8,0.,4.8,,0,0.,4.8,0.,4.8
1979-08-03 09:04:29.050 ,4,0,,0,3.,4.8,0.,4.8,,0,0.,4.8,1.,4.8
1979-08-03 09:04:33.850 ,4,0,,0,1.,4.8,0.,4.8,,0,0.,4.8,0.,4.8
1979-08-03 09:04:38.650 ,4,0,,0,0.,4.8,0.,4.8,,0,0.,4.8,0.,4.8
1979-08-03 09:04:43.450 ,4,0,,0,0.,4.8,0.,4.8,,0,0.,4.8,0.,4.8
1979-08-03 09:04:48.250 ,5,0,,0,0.,4.8,0.,4.8,,0,0.,4.8,1.,4.8
1979-08-03 09:04:53.050 ,5,0,,0,0.,4.8,0.,4.8,,0,0.,4.8,0.,4.8
1979-08-03 09:04:57.850 ,5,0,,0,0.,4.8,0.,4.8,,0,0.,4.8,0.,4.8
1979-08-03 09:05:02.650 ,5,0,,0,1.,4.8,0.,4.8,,0,0.,4.8,0.,4.8
1979-08-03 09:05:07.450 ,5,0,,0,4.,4.8,0.,4.8,,0,0.,4.8,0.,4.8
1979-08-03 09:05:12.250 ,5,0,,0,5.,4.8,0.,4.8,,0,0.,4.8,0.,4.8
1979-08-03 09:05:17.050 ,5,0,,0,7.,4.8,1.,4.8,,0,0.,4.8,0.,4.8
1979-08-03 09:05:21.850 ,5,0,,0,1.,4.8,0.,4.8,,0,0.,4.8,0.,4.8
1979-08-03 09:05:26.650 ,5,0,,0,0.,4.8,0.,4.8,,0,0.,4.8,0.,4.8
1979-08-03 09:05:31.450 ,5,0,,0,0.,4.8,0.,4.8,,0,0.,4.8,0.,4.8
1979-08-03 09:05:36.250 ,6,0,,0,0.,4.8,0.,4.8,,0,0.,4.8,0.,4.8
1979-08-03 09:05:41.050 ,6,0,,0,0.,4.8,0.,4.8,,0,0.,4.8,0.,4.8
1979-08-03 09:05:45.850 ,6,0,,0,1.,4.8,0.,4.8,,0,0.,4.8,0.,4.8
1979-08-03 09:05:50.650 ,6,0,,0,7.,4.8,0.,4.8,,0,0.,4.8,1.,4.8
1979-08-03 09:05:55.450 ,6,0,,0,2.,4.8,0.,4.8,,0,0.,4.8,1.,4.8
1979-08-03 09:06:00.250 ,6,0,,0,3.,4.8,0.,4.8,,0,0.,4.8,0.,4.8
1979-08-03 09:06:05.050 ,6,0,,0,3.,4.8,0.,4.8,,0,0.,4.8,0.,4.8
1979-08-03 09:06:09.850 ,6,0,,0,6.,4.8,0.,4.8,,0,0.,4.8,0.,4.8
1979-08-03 09:06:14.650 ,6,0,,0,0.,4.8,0.,4.8,,0,0.,4.8,0.,4.8
1979-08-03 09:06:19.450 ,6,0,,0,0.,4.8,0.,4.8,,0,0.,4.8,0.,4.8
1979-08-03 09:06:24.250 ,0,0,,0,0.,4.8,4.,4.8,,0,2048.,4.8,14.,4.8
1979-08-03 09:06:29.050 ,0,0,,0,,0,,0,,0,,0,,0
1979-08-03 09:06:33.850 ,0,0,,0,,0,,0,,0,,0,,0
1979-08-03 09:06:38.650 ,0,0,,0,,0,,0,,0,,0,,0
1979-08-03 09:06:43.450 ,0,0,,0,,0,,0,,0,,0,,0
1979-08-03 09:06:48.250 ,0,0,,0,,0,,0,,0,,0,,0
1979-08-03 09:06:53.050 ,0,0,,0,,0,,0,,0,,0,,0
1979-08-03 09:06:57.850 ,0,0,,0,,0,,0,,0,,0,,0
1979-08-03 09:07:02.650 ,0,0,,0,,0,,0,,0,,0,,0
1979-08-03 09:07:07.450 ,0,0,,0,,0,,0,,0,,0,,0
1979-08-03 09:08:15.250 ,0,0,,0,,0,,0,,0,,0,,0
1979-08-03 09:08:20.050 ,0,0,,0,,0,,0,,0,,0,,0
1979-08-03 09:08:24.850 ,0,0,,0,,0,,0,,0,,0,,0
1979-08-03 09:08:29.650 ,0,0,,0,2.,4.8,0.,4.8,,0,0.,4.8,0.,4.8
1979-08-03 09:08:34.450 ,0,0,,0,2.,4.8,0.,4.8,,0,0.,4.8,2.,4.8
1979-08-03 09:08:24.250 ,7,1,,0,1.,4.8,0.,4.8,,0,0.,4.8,0.,4.8
1979-08-03 09:08:29.050 ,7,1,,0,3.,4.8,0.,4.8,,0,0.,4.8,1.,4.8
1979-08-03 09:08:33.850 ,7,1,,0,4.,4.8,0.,4.8,,0,0.,4.8,0.,4.8
1979-08-03 09:08:38.650 ,7,1,,0,0.,4.8,0.,4.8,,0,0.,4.8,0.,4.8
1979-08-03 09:08:43.450 ,7,1,,0,0.,4.8,0.,4.8,,0,0.,4.8,0.,4.8
1979-08-03 09:08:48.250 ,3,1,,0,0.,4.8,0.,4.8,,0,0.,4.8,0.,4.8
1979-08-03 09:08:53.050 ,3,1,,0,0.,4.8,0.,4.8,,0,0.,4.8,0.,4.8
1979-08-03 09:08:57.850 ,3,1,,0,0.,4.8,0.,4.8,,0,0.,4.8,2.,4.8
1979-08-03 09:09:02.650 ,3,1,,0,3.,4.8,0.,4.8,,0,0.,4.8,0.,4.8
1979-08-03 09:09:07.450 ,3,1,,0,6.,4.8,0.,4.8,,0,0.,4.8,0.,4.8
1979-08-03 09:09:12.250 ,0,1,,0,5.,4.8,0.,4.8,,0,0.,4.8,0.,4.8
1979-08-03 09:09:17.050 ,0,1,,0,5.,4.8,0.,4.8,,0,0.,4.8,0.,4.8
1979-08-03 09:09:21.850 ,0,1,,0,3.,4.8,0.,4.8,,0,0.,4.8,0.,4.8
1979-08-03 09:09:26.650 ,0,1,,0,0.,4.8,0.,4.8,,0,0.,4.8,2.,4.8
1979-08-03 09:09:31.450 ,0,1,,0,0.,4.8,0.,4.8,,0,0.,4.8,0.,4.8
1979-08-03 09:09:36.250 ,4,1,,0,0.,4.8,0.,4.8,,0,0.,4.8,0.,4.8
1979-08-03 09:09:41.050 ,4,1,,0,0.,4.8,0.,4.8,,0,0.,4.8,1.,4.8
1979-08-03 09:09:45.850 ,4,1,,0,1.,4.8,0.,4.8,,0,0.,4.8,2.,4.8
1979-08-03 09:09:50.650 ,4,1,,0,0.,4.8,0.,4.8,,0,0.,4.8,0.,4.8
1979-08-03 09:09:55.450 ,4,1,,0,3.,4.8,0.,4.8,,0,0.,4.8,0.,4.8
1979-08-03 09:10:00.250 ,7,1,,0,4.,4.8,0.,4.8,,0,0.,4.8,0.,4.8
1979-08-03 09:10:05.050 ,7,1,,0,9.,4.8,0.,4.8,,0,0.,4.8,0.,4.8
1979-08-03 09:10:09.850 ,7,1,,0,5.,4.8,0.,4.8,,0,0.,4.8,0.,4.8
1979-08-03 09:10:14.650 ,7,1,,0,0.,4.8,0.,4.8,,0,0.,4.8,0.,4.8
1979-08-03 09:10:19.450 ,7,1,,0,0.,4.8,0.,4.8,,0,0.,4.8,0.,4.8
1979-08-03 09:10:24.250 ,3,1,,0,0.,4.8,0.,4.8,,0,0.,4.8,0.,4.8
1979-08-03 09:10:29.050 ,3,1,,0,0.,4.8,0.,4.8,,0,0.,4.8,0.,4.8
1979-08-03 09:10:33.850 ,3,1,,0,1.,4.8,0.,4.8,,0,0.,4.8,1.,4.8
1979-08-03 09:10:38.650 ,3,1,,0,7.,4.8,0.,4.8,,0,0.,4.8,1.,4.8
1979-08-03 09:10:43.450 ,3,1,,0,5.,4.8,0.,4.8,,0,0.,4.8,0.,4.8
1979-08-03 09:10:48.250 ,0,1,,0,4.,4.8,0.,4.8,,0,0.,4.8,0.,4.8
1979-08-03 09:10:53.050 ,0,1,,0,7.,4.8,1.,4.8,,0,0.,4.8,0.,4.8
1979-08-03 09:10:57.850 ,0,1,,0,2.,4.8,0.,4.8,,0,0.,4.8,0.,4.8
1979-08-03 09:11:02.650 ,0,1,,0,0.,4.8,0.,4.8,,0,0.,4.8,3.,4.8
1979-08-03 09:11:07.450 ,0,1,,0,0.,4.8,0.,4.8,,0,0.,4.8,2.,4.8
1979-08-03 09:11:12.250 ,4,1,,0,0.,4.8,0.,4.8,,0,0.,4.8,0.,4.8
1979-08-03 09:11:17.050 ,4,1,,0,0.,4.8,0.,4.8,,0,0.,4.8,0.,4.8
1979-08-03 09:11:21.850 ,4,1,,0,1.,4.8,0.,4.8,,0,0.,4.8,0.,4.8
1979-08-03 09:11:26.650 ,4,1,,0,5.,4.8,0.,4.8,,0,0.,4.8,0.,4.8
1979-08-03 09:11:31.450 ,4,1,,0,2.,4.8,0.,4.8,,0,0.,4.8,0.,4.8
1979-08-03 09:11:36.250 ,7,1,,0,2.,4.8,0.,4.8,,0,0.,4.8,0.,4.8
1979-08-03 09:11:41.050 ,7,1,,0,3.,4.8,0.,4.8,,0,0.,4.8,0.,4.8
1979-08-03 09:11:45.850 ,7,1,,0,0.,4.8,0.,4.8,,0,0.,4.8,1.,4.8
1979-08-03 09:11:50.650 ,7,1,,0,0.,4.8,0.,4.8,,0,0.,4.8,0.,4.8
1979-08-03 09:11:55.450 ,7,1,,0,0.,4.8,0.,4.8,,0,0.,4.8,0.,4.8
1979-08-03 09:12:00.250 ,3,1,,0,0.,4.8,0.,4.8,,0,0.,4.8,0.,4.8
1979-08-03 09:12:05.050 ,3,1,,0,0.,4.8,0.,4.8,,0,0.,4.8,0.,4.8
1979-08-03 09:12:09.850 ,3,1,,0,0.,4.8,0.,4.8,,0,0.,4.8,0.,4.8
1979-08-03 09:12:14.650 ,3,1,,0,5.,4.8,0.,4.8,,0,0.,4.8,0.,4.8
1979-08-03 09:12:19.450 ,3,1,,0,3.,4.8,0.,4.8,,0,0.,4.8,0.,4.8
1979-08-03 09:12:24.250 ,0,1,,0,4.,4.8,0.,4.8,,0,0.,4.8,0.,4.8
1979-08-03 09:12:29.050 ,0,1,,0,2.,4.8,0.,4.8,,0,0.,4.8,0.,4.8
1979-08-03 09:12:33.850 ,0,1,,0,1.,4.8,0.,4.8,,0,0.,4.8,0.,4.8
1979-08-03 09:12:38.650 ,0,1,,0,0.,4.8,0.,4.8,,0,0.,4.8,0.,4.8
1979-08-03 09:12:43.450 ,0,1,,0,0.,4.8,0.,4.8,,0,0.,4.8,0.,4.8
1979-08-03 09:12:48.250 ,4,1,,0,0.,4.8,0.,4.8,,0,0.,4.8,0.,4.8
1979-08-03 09:12:53.050 ,4,1,,0,0.,4.8,0.,4.8,,0,0.,4.8,0.,4.8
1979-08-03 09:12:57.850 ,4,1,,0,1.,4.8,0.,4.8,,0,0.,4.8,0.,4.8
1979-08-03 09:13:02.650 ,4,1,,0,4.,4.8,1.,4.8,,0,0.,4.8,0.,4.8
1979-08-03 09:13:07.450 ,4,1,,0,2.,4.8,0.,4.8,,0,0.,4.8,1.,4.8
1979-08-03 09:13:12.250 ,7,1,,0,1.,4.8,0.,4.8,,0,0.,4.8,0.,4.8
1979-08-03 09:13:17.050 ,7,1,,0,11.,4.8,0.,4.8,,0,0.,4.8,0.,4.8
1979-08-03 09:13:21.850 ,7,1,,0,5.,4.8,0.,4.8,,0,0.,4.8,1.,4.8
1979-08-03 09:13:26.650 ,7,1,,0,0.,4.8,0.,4.8,,0,0.,4.8,0.,4.8
1979-08-03 09:13:31.450 ,7,1,,0,0.,4.8,0.,4.8,,0,0.,4.8,0.,4.8
1979-08-03 09:13:36.250 ,3,1,,0,0.,4.8,0.,4.8,,0,0.,4.8,0.,4.8
1979-08-03 09:13:41.050 ,3,1,,0,0.,4.8,0.,4.8,,0,0.,4.8,0.,4.8
1979-08-03 09:13:45.850 ,3,1,,0,1.,4.8,0.,4.8,,0,0.,4.8,0.,4.8
1979-08-03 09:13:50.650 ,3,1,,0,3.,4.8,0.,4.8,,0,0.,4.8,0.,4.8
1979-08-03 09:13:55.450 ,3,1,,0,1.,4.8,0.,4.8,,0,0.,4.8,1.,4.8
1979-08-03 09:14:00.250 ,0,1,,0,1.,4.8,0.,4.8,,0,0.,4.8,1.,4.8
1979-08-03 09:14:05.050 ,0,1,,0,4.,4.8,0.,4.8,,0,0.,4.8,0.,4.8
1979-08-03 09:14:09.850 ,0,1,,0,4.,4.8,0.,4.8,,0,0.,4.8,0.,4.8
1979-08-03 09:14:14.650 ,0,1,,0,0.,4.8,0.,4.8,,0,0.,4.8,0.,4.8
1979-08-03 09:14:19.450 ,0,1,,0,0.,4.8,0.,4.8,,0,0.,4.8,0.,4.8
1979-08-03 09:14:24.250 ,4,1,,0,0.,4.8,0.,4.8,,0,0.,4.8,0.,4.8
1979-08-03 09:14:29.050 ,4,1,,0,0.,4.8,0.,4.8,,0,0.,4.8,0.,4.8
1979-08-03 09:14:33.850 ,4,1,,0,2.,4.8,0.,4.8,,0,0.,4.8,0.,4.8
1979-08-03 09:14:38.650 ,4,1,,0,3.,4.8,0.,4.8,,0,0.,4.8,0.,4.8
1979-08-03 09:14:43.450 ,4,1,,0,4.,4.8,0.,4.8,,0,0.,4.8,0.,4.8
1979-08-03 09:14:48.250 ,7,1,,0,3.,4.8,0.,4.8,,0,0.,4.8,0.,4.8
1979-08-03 09:14:53.050 ,7,1,,0,3.,4.8,0.,4.8,,0,0.,4.8,1.,4.8
1979-08-03 09:14:57.850 ,7,1,,0,2.,4.8,0.,4.8,,0,0.,4.8,0.,4.8
1979-08-03 09:15:02.650 ,7,1,,0,0.,4.8,0.,4.8,,0,0.,4.8,0.,4.8
1979-08-03 09:15:07.450 ,7,1,,0,0.,4.8,0.,4.8,,0,0.,4.8,0.,4.8
1979-08-03 09:15:12.250 ,3,1,,0,0.,4.8,0.,4.8,,0,0.,4.8,0.,4.8
1979-08-03 09:15:17.050 ,3,1,,0,0.,4.8,0.,4.8,,0,0.,4.8,0.,4.8
1979-08-03 09:15:21.850 ,3,1,,0,0.,4.8,0.,4.8,,0,0.,4.8,0.,4.8
1979-08-03 09:15:26.650 ,3,1,,0,4.,4.8,0.,4.8,,0,0.,4.8,1.,4.8
1979-08-03 09:15:31.450 ,3,1,,0,3.,4.8,0.,4.8,,0,0.,4.8,0.,4.8
1979-08-03 09:15:36.250 ,0,1,,0,4.,4.8,0.,4.8,,0,0.,4.8,0.,4.8
1979-08-03 09:15:41.050 ,0,1,,0,2.,4.8,1.,4.8,,0,0.,4.8,1.,4.8
1979-08-03 09:15:45.850 ,0,1,,0,2.,4.8,1.,4.8,,0,0.,4.8,0.,4.8
1979-08-03 09:15:50.650 ,0,1,,0,0.,4.8,0.,4.8,,0,0.,4.8,0.,4.8
1979-08-03 09:15:55.450 ,0,1,,0,1.,4.8,0.,4.8,,0,0.,4.8,1.,4.8
1979-08-03 09:16:00.250 ,4,1,,0,0.,4.8,0.,4.8,,0,0.,4.8,0.,4.8
1979-08-03 09:16:05.050 ,4,1,,0,0.,4.8,0.,4.8,,0,0.,4.8,0.,4.8
1979-08-03 09:16:09.850 ,4,1,,0,0.,4.8,0.,4.8,,0,0.,4.8,2.,4.8
1979-08-03 09:16:14.650 ,4,1,,0,3.,4.8,0.,4.8,,0,0.,4.8,0.,4.8
1979-08-03 09:16:19.450 ,4,1,,0,3.,4.8,0.,4.8,,0,0.,4.8,0.,4.8
1979-08-03 09:16:24.250 ,7,1,,0,3.,4.8,0.,4.8,,0,0.,4.8,0.,4.8
1979-08-03 09:16:29.050 ,7,1,,0,5.,4.8,0.,4.8,,0,0.,4.8,2.,4.8
1979-08-03 09:16:33.850 ,7,1,,0,3.,4.8,0.,4.8,,0,0.,4.8,0.,4.8
1979-08-03 09:16:38.650 ,7,1,,0,0.,4.8,0.,4.8,,0,0.,4.8,0.,4.8
1979-08-03 09:16:43.450 ,7,1,,0,0.,4.8,0.,4.8,,0,0.,4.8,0.,4.8
1979-08-03 09:16:48.250 ,3,1,,0,0.,4.8,0.,4.8,,0,0.,4.8,0.,4.8
1979-08-03 09:16:53.050 ,3,1,,0,0.,4.8,0.,4.8,,0,0.,4.8,0.,4.8
1979-08-03 09:16:57.850 ,3,1,,0,1.,4.8,0.,4.8,,0,0.,4.8,0.,4.8
1979-08-03 09:17:02.650 ,3,1,,0,1.,4.8,0.,4.8,,0,0.,4.8,0.,4.8
1979-08-03 09:17:07.450 ,3,1,,0,2.,4.8,0.,4.8,,0,0.,4.8,1.,4.8
1979-08-03 09:17:12.250 ,0,1,,0,3.,4.8,0.,4.8,,0,0.,4.8,0.,4.8
1979-08-03 09:17:17.050 ,0,1,,0,1.,4.8,0.,4.8,,0,0.,4.8,1.,4.8
1979-08-03 09:17:21.850 ,0,1,,0,2.,4.8,0.,4.8,,0,0.,4.8,1.,4.8
1979-08-03 09:17:26.650 ,0,1,,0,0.,4.8,0.,4.8,,0,0.,4.8,0.,4.8
1979-08-03 09:17:31.450 ,0,1,,0,0.,4.8,0.,4.8,,0,0.,4.8,0.,4.8
1979-08-03 09:17:36.250 ,0,0,,0,0.,4.8,0.,4.8,,0,0.,4.8,0.,4.8
1979-08-03 09:17:41.050 ,0,0,,0,0.,4.8,0.,4.8,,0,0.,4.8,1.,4.8
1979-08-03 09:17:45.850 ,0,0,,0,0.,4.8,0.,4.8,,0,0.,4.8,1.,4.8
1979-08-03 09:17:50.650 ,0,0,,0,1.,4.8,0.,4.8,,0,0.,4.8,0.,4.8
1979-08-03 09:17:55.450 ,0,0,,0,6.,4.8,0.,4.8,,0,0.,4.8,0.,4.8
1979-08-03 09:18:00.250 ,0,0,,0,5.,4.8,0.,4.8,,0,0.,4.8,1.,4.8
1979-08-03 09:18:05.050 ,0,0,,0,5.,4.8,0.,4.8,,0,0.,4.8,0.,4.8
1979-08-03 09:18:09.850 ,0,0,,0,0.,4.8,0.,4.8,,0,0.,4.8,0.,4.8
1979-08-03 09:18:14.650 ,0,0,,0,0.,4.8,0.,4.8,,0,0.,4.8,0.,4.8
1979-08-03 09:18:19.450 ,0,0,,0,0.,4.8,0.,4.8,,0,0.,4.8,0.,4.8
1979-08-03 09:18:24.250 ,5,0,,0,0.,4.8,0.,4.8,,0,0.,4.8,0.,4.8
1979-08-03 09:18:29.050 ,5,0,,0,0.,4.8,0.,4.8,,0,0.,4.8,0.,4.8
1979-08-03 09:18:33.850 ,5,0,,0,2.,4.8,0.,4.8,,0,0.,4.8,0.,4.8
1979-08-03 09:18:38.650 ,5,0,,0,3.,4.8,0.,4.8,,0,0.,4.8,0.,4.8
1979-08-03 09:18:43.450 ,5,0,,0,3.,4.8,0.,4.8,,0,0.,4.8,0.,4.8
1979-08-03 09:18:48.250 ,5,0,,0,8.,4.8,0.,4.8,,0,0.,4.8,0.,4.8
1979-08-03 09:18:53.050 ,5,0,,0,4.,4.8,0.,4.8,,0,0.,4.8,0.,4.8
1979-08-03 09:18:57.850 ,5,0,,0,4.,4.8,0.,4.8,,0,0.,4.8,0.,4.8
1979-08-03 09:19:02.650 ,5,0,,0,0.,4.8,0.,4.8,,0,0.,4.8,0.,4.8
1979-08-03 09:19:07.450 ,5,0,,0,0.,4.8,0.,4.8,,0,0.,4.8,0.,4.8
1979-08-03 09:19:12.250 ,4,0,,0,0.,4.8,0.,4.8,,0,0.,4.8,0.,4.8
1979-08-03 09:19:17.050 ,4,0,,0,0.,4.8,0.,4.8,,0,0.,4.8,1.,4.8
1979-08-03 09:19:21.850 ,4,0,,0,1.,4.8,0.,4.8,,0,0.,4.8,1.,4.8
1979-08-03 09:19:26.650 ,4,0,,0,5.,4.8,0.,4.8,,0,0.,4.8,1.,4.8
1979-08-03 09:19:31.450 ,4,0,,0,2.,4.8,0.,4.8,,0,0.,4.8,0.,4.8
1979-08-03 09:19:36.250 ,4,0,,0,1.,4.8,0.,4.8,,0,0.,4.8,1.,4.8
1979-08-03 09:19:41.050 ,4,0,,0,3.,4.8,0.,4.8,,0,0.,4.8,0.,4.8
1979-08-03 09:19:45.850 ,4,0,,0,3.,4.8,0.,4.8,,0,0.,4.8,0.,4.8
1979-08-03 09:19:50.650 ,4,0,,0,0.,4.8,0.,4.8,,0,0.,4.8,0.,4.8
1979-08-03 09:19:55.450 ,4,0,,0,0.,4.8,0.,4.8,,0,0.,4.8,1.,4.8
1979-08-03 09:20:00.250 ,3,0,,0,1.,4.8,0.,4.8,,0,0.,4.8,0.,4.8
1979-08-03 09:20:05.050 ,3,0,,0,0.,4.8,0.,4.8,,0,0.,4.8,0.,4.8
1979-08-03 09:20:09.850 ,3,0,,0,0.,4.8,0.,4.8,,0,0.,4.8,0.,4.8
1979-08-03 09:20:14.650 ,3,0,,0,3.,4.8,0.,4.8,,0,0.,4.8,0.,4.8
1979-08-03 09:20:19.450 ,3,0,,0,3.,4.8,0.,4.8,,0,0.,4.8,1.,4.8
1979-08-03 09:20:24.250 ,3,0,,0,4.,4.8,0.,4.8,,0,0.,4.8,0.,4.8
1979-08-03 09:20:29.050 ,3,0,,0,2.,4.8,0.,4.8,,0,0.,4.8,0.,4.8
1979-08-03 09:20:33.850 ,3,0,,0,2.,4.8,0.,4.8,,0,0.,4.8,0.,4.8
1979-08-03 09:20:38.650 ,3,0,,0,0.,4.8,0.,4.8,,0,0.,4.8,0.,4.8
1979-08-03 09:20:43.450 ,3,0,,0,0.,4.8,0.,4.8,,0,0.,4.8,1.,4.8
1979-08-03 09:20:48.250 ,2,0,,0,0.,4.8,0.,4.8,,0,0.,4.8,1.,4.8
1979-08-03 09:20:53.050 ,2,0,,0,0.,4.8,0.,4.8,,0,0.,4.8,0.,4.8
1979-08-03 09:20:57.850 ,2,0,,0,1.,4.8,0.,4.8,,0,0.,4.8,0.,4.8
1979-08-03 09:21:02.650 ,2,0,,0,5.,4.8,0.,4.8,,0,0.,4.8,0.,4.8
1979-08-03 09:21:07.450 ,2,0,,0,5.,4.8,0.,4.8,,0,0.,4.8,0.,4.8
1979-08-03 09:21:12.250 ,2,0,,0,3.,4.8,0.,4.8,,0,0.,4.8,1.,4.8
1979-08-03 09:21:17.050 ,2,0,,0,6.,4.8,0.,4.8,,0,0.,4.8,0.,4.8
1979-08-03 09:21:21.850 ,2,0,,0,2.,4.8,0.,4.8,,0,0.,4.8,0.,4.8
1979-08-03 09:21:26.650 ,2,0,,0,0.,4.8,0.,4.8,,0,0.,4.8,0.,4.8
1979-08-03 09:21:31.450 ,2,0,,0,0.,4.8,0.,4.8,,0,0.,4.8,0.,4.8
1979-08-03 09:21:36.250 ,1,0,,0,0.,4.8,0.,4.8,,0,0.,4.8,2.,4.8
1979-08-03 09:21:41.050 ,1,0,,0,0.,4.8,0.,4.8,,0,0.,4.8,0.,4.8
1979-08-03 09:21:45.850 ,1,0,,0,0.,4.8,0.,4.8,,0,0.,4.8,1.,4.8
1979-08-03 09:21:50.650 ,1,0,,0,4.,4.8,0.,4.8,,0,0.,4.8,0.,4.8
1979-08-03 09:21:55.450 ,1,0,,0,3.,4.8,0.,4.8,,0,0.,4.8,0.,4.8
1979-08-03 09:22:00.250 ,1,0,,0,1.,4.8,0.,4.8,,0,0.,4.8,0.,4.8
1979-08-03 09:22:05.050 ,1,0,,0,1.,4.8,0.,4.8,,0,0.,4.8,1.,4.8
1979-08-03 09:22:09.850 ,1,0,,0,4.,4.8,0.,4.8,,0,0.,4.8,0.,4.8
1979-08-03 09:22:14.650 ,1,0,,0,0.,4.8,0.,4.8,,0,0.,4.8,0.,4.8
1979-08-03 09:22:19.450 ,1,0,,0,0.,4.8,0.,4.8,,0,0.,4.8,0.,4.8
1979-08-03 09:22:24.250 ,0,0,,0,0.,4.8,0.,4.8,,0,0.,4.8,0.,4.8
1979-08-03 09:22:29.050 ,0,0,,0,0.,4.8,0.,4.8,,0,0.,4.8,0.,4.8
1979-08-03 09:22:33.850 ,0,0,,0,2.,4.8,0.,4.8,,0,0.,4.8,2.,4.8
1979-08-03 09:22:38.650 ,0,0,,0,2.,4.8,1.,4.8,,0,0.,4.8,0.,4.8
1979-08-03 09:22:43.450 ,0,0,,0,1.,4.8,0.,4.8,,0,0.,4.8,0.,4.8
1979-08-03 09:22:48.250 ,0,0,,0,5.,4.8,2.,4.8,,0,0.,4.8,0.,4.8
1979-08-03 09:22:53.050 ,0,0,,0,4.,4.8,0.,4.8,,0,0.,4.8,1.,4.8
1979-08-03 09:22:57.850 ,0,0,,0,5.,4.8,1.,4.8,,0,0.,4.8,0.,4.8
1979-08-03 09:23:02.650 ,0,0,,0,0.,4.8,0.,4.8,,0,0.,4.8,1.,4.8
1979-08-03 09:23:07.450 ,0,0,,0,0.,4.8,0.,4.8,,0,0.,4.8,1.,4.8
1979-08-03 09:23:12.250 ,0,0,,0,0.,4.8,0.,4.8,,0,0.,4.8,1.,4.8
1979-08-03 09:23:17.050 ,0,0,,0,0.,4.8,0.,4.8,,0,0.,4.8,1.,4.8
1979-08-03 09:23:21.850 ,0,0,,0,1.,4.8,0.,4.8,,0,0.,4.8,0.,4.8
1979-08-03 09:23:26.650 ,0,0,,0,3.,4.8,1.,4.8,,0,0.,4.8,0.,4.8
1979-08-03 09:23:31.450 ,0,0,,0,1.,4.8,1.,4.8,,0,0.,4.8,1.,4.8
1979-08-03 09:23:36.250 ,0,0,,0,5.,4.8,0.,4.8,,0,0.,4.8,1.,4.8
1979-08-03 09:23:41.050 ,0,0,,0,6.,4.8,0.,4.8,,0,0.,4.8,1.,4.8
1979-08-03 09:23:45.850 ,0,0,,0,2.,4.8,0.,4.8,,0,0.,4.8,0.,4.8
1979-08-03 09:23:50.650 ,0,0,,0,0.,4.8,0.,4.8,,0,0.,4.8,2.,4.8
1979-08-03 09:23:55.450 ,0,0,,0,0.,4.8,0.,4.8,,0,0.,4.8,1.,4.8
1979-08-03 09:24:00.250 ,1,0,,0,0.,4.8,0.,4.8,,0,0.,4.8,0.,4.8
1979-08-03 09:24:05.050 ,1,0,,0,0.,4.8,0.,4.8,,0,0.,4.8,1.,4.8
1979-08-03 09:24:09.850 ,1,0,,0,0.,4.8,0.,4.8,,0,0.,4.8,0.,4.8
1979-08-03 09:24:14.650 ,1,0,,0,3.,4.8,0.,4.8,,0,0.,4.8,1.,4.8
1979-08-03 09:24:19.450 ,1,0,,0,2.,4.8,0.,4.8,,0,0.,4.8,2.,4.8
1979-08-03 09:24:24.250 ,1,0,,0,3.,4.8,0.,4.8,,0,0.,4.8,0.,4.8
1979-08-03 09:24:29.050 ,1,0,,0,4.,4.8,0.,4.8,,0,0.,4.8,1.,4.8
1979-08-03 09:24:33.850 ,1,0,,0,2.,4.8,0.,4.8,,0,0.,4.8,0.,4.8
1979-08-03 09:24:38.650 ,1,0,,0,0.,4.8,0.,4.8,,0,0.,4.8,1.,4.8
1979-08-03 09:24:43.450 ,1,0,,0,0.,4.8,0.,4.8,,0,0.,4.8,1.,4.8
1979-08-03 09:24:48.250 ,2,0,,0,0.,4.8,0.,4.8,,0,0.,4.8,0.,4.8
1979-08-03 09:24:53.050 ,2,0,,0,0.,4.8,0.,4.8,,0,0.,4.8,0.,4.8
1979-08-03 09:24:57.850 ,2,0,,0,0.,4.8,0.,4.8,,0,0.,4.8,2.,4.8
1979-08-03 09:25:02.650 ,2,0,,0,6.,4.8,0.,4.8,,0,0.,4.8,0.,4.8
1979-08-03 09:25:07.450 ,2,0,,0,0.,4.8,0.,4.8,,0,0.,4.8,2.,4.8
1979-08-03 09:25:12.250 ,2,0,,0,6.,4.8,0.,4.8,,0,0.,4.8,0.,4.8
1979-08-03 09:25:17.050 ,2,0,,0,4.,4.8,0.,4.8,,0,0.,4.8,0.,4.8
1979-08-03 09:25:21.850 ,2,0,,0,6.,4.8,0.,4.8,,0,0.,4.8,0.,4.8
1979-08-03 09:25:26.650 ,2,0,,0,0.,4.8,0.,4.8,,0,0.,4.8,0.,4.8
1979-08-03 09:25:31.450 ,2,0,,0,0.,4.8,0.,4.8,,0,0.,4.8,0.,4.8
1979-08-03 09:25:36.250 ,3,0,,0,0.,4.8,0.,4.8,,0,0.,4.8,0.,4.8
1979-08-03 09:25:41.050 ,3,0,,0,0.,4.8,0.,4.8,,0,0.,4.8,0.,4.8
1979-08-03 09:25:45.850 ,3,0,,0,0.,4.8,0.,4.8,,0,0.,4.8,0.,4.8
1979-08-03 09:25:50.650 ,3,0,,0,1.,4.8,0.,4.8,,0,0.,4.8,0.,4.8
1979-08-03 09:25:55.450 ,3,0,,0,3.,4.8,0.,4.8,,0,0.,4.8,0.,4.8
1979-08-03 09:26:00.250 ,3,0,,0,6.,4.8,1.,4.8,,0,0.,4.8,1.,4.8
1979-08-03 09:26:05.050 ,3,0,,0,1.,4.8,0.,4.8,,0,0.,4.8,1.,4.8
1979-08-03 09:26:09.850 ,3,0,,0,2.,4.8,0.,4.8,,0,0.,4.8,1.,4.8
1979-08-03 09:26:14.650 ,3,0,,0,0.,4.8,0.,4.8,,0,0.,4.8,0.,4.8
1979-08-03 09:26:19.450 ,3,0,,0,0.,4.8,0.,4.8,,0,0.,4.8,1.,4.8
1979-08-03 09:26:24.250 ,4,0,,0,0.,4.8,0.,4.8,,0,0.,4.8,0.,4.8
1979-08-03 09:26:29.050 ,4,0,,0,0.,4.8,0.,4.8,,0,0.,4.8,0.,4.8
1979-08-03 09:26:33.850 ,4,0,,0,0.,4.8,0.,4.8,,0,0.,4.8,0.,4.8
1979-08-03 09:26:38.650 ,4,0,,0,4.,4.8,0.,4.8,,0,0.,4.8,0.,4.8
1979-08-03 09:26:43.450 ,4,0,,0,1.,4.8,0.,4.8,,0,0.,4.8,0.,4.8
1979-08-03 09:26:48.250 ,4,0,,0,5.,4.8,0.,4.8,,0,0.,4.8,0.,4.8
1979-08-03 09:26:53.050 ,4,0,,0,0.,4.8,0.,4.8,,0,0.,4.8,0.,4.8
1979-08-03 09:26:57.850 ,4,0,,0,3.,4.8,0.,4.8,,0,0.,4.8,0.,4.8
1979-08-03 09:27:02.650 ,4,0,,0,0.,4.8,0.,4.8,,0,0.,4.8,0.,4.8
1979-08-03 09:27:07.450 ,4,0,,0,0.,4.8,0.,4.8,,0,0.,4.8,0.,4.8
1979-08-03 09:27:12.250 ,5,0,,0,0.,4.8,0.,4.8,,0,0.,4.8,0.,4.8
1979-08-03 09:27:17.050 ,5,0,,0,0.,4.8,0.,4.8,,0,0.,4.8,0.,4.8
1979-08-03 09:27:21.850 ,5,0,,0,0.,4.8,0.,4.8,,0,0.,4.8,0.,4.8
1979-08-03 09:27:26.650 ,5,0,,0,3.,4.8,0.,4.8,,0,0.,4.8,0.,4.8
1979-08-03 09:27:31.450 ,5,0,,0,4.,4.8,1.,4.8,,0,0.,4.8,1.,4.8
1979-08-03 09:27:36.250 ,5,0,,0,7.,4.8,0.,4.8,,0,0.,4.8,0.,4.8
1979-08-03 09:27:41.050 ,5,0,,0,2.,4.8,0.,4.8,,0,0.,4.8,0.,4.8
1979-08-03 09:27:45.850 ,5,0,,0,2.,4.8,0.,4.8,,0,0.,4.8,0.,4.8
1979-08-03 09:27:50.650 ,5,0,,0,0.,4.8,1.,4.8,,0,0.,4.8,0.,4.8
1979-08-03 09:27:55.450 ,5,0,,0,0.,4.8,0.,4.8,,0,0.,4.8,0.,4.8
1979-08-03 09:28:00.250 ,6,0,,0,1.,4.8,0.,4.8,,0,0.,4.8,0.,4.8
1979-08-03 09:28:05.050 ,6,0,,0,0.,4.8,0.,4.8,,0,0.,4.8,0.,4.8
1979-08-03 09:28:09.850 ,6,0,,0,0.,4.8,0.,4.8,,0,0.,4.8,0.,4.8
1979-08-03 09:28:14.650 ,6,0,,0,5.,4.8,0.,4.8,,0,0.,4.8,0.,4.8
1979-08-03 09:28:19.450 ,6,0,,0,0.,4.8,0.,4.8,,0,0.,4.8,0.,4.8
1979-08-03 09:28:24.250 ,6,0,,0,5.,4.8,0.,4.8,,0,0.,4.8,1.,4.8
1979-08-03 09:28:29.050 ,6,0,,0,1.,4.8,0.,4.8,,0,0.,4.8,0.,4.8
1979-08-03 09:28:33.850 ,6,0,,0,2.,4.8,0.,4.8,,0,0.,4.8,0.,4.8
1979-08-03 09:28:38.650 ,6,0,,0,0.,4.8,0.,4.8,,0,0.,4.8,0.,4.8
1979-08-03 09:28:43.450 ,6,0,,0,0.,4.8,0.,4.8,,0,1.,4.8,0.,4.8
1979-08-03 09:28:48.250 ,7,0,,0,0.,4.8,0.,4.8,,0,0.,4.8,0.,4.8
1979-08-03 09:28:53.050 ,7,0,,0,0.,4.8,0.,4.8,,0,0.,4.8,0.,4.8
1979-08-03 09:28:57.850 ,7,0,,0,4.,4.8,0.,4.8,,0,0.,4.8,0.,4.8
1979-08-03 09:29:02.650 ,7,0,,0,14.,4.8,0.,4.8,,0,0.,4.8,0.,4.8
1979-08-03 09:29:07.450 ,7,0,,0,9.,4.8,0.,4.8,,0,0.,4.8,0.,4.8
1979-08-03 09:29:12.250 ,7,0,,0,16.,4.8,0.,4.8,,0,0.,4.8,0.,4.8
1979-08-03 09:29:17.050 ,7,0,,0,14.,4.8,0.,4.8,,0,0.,4.8,0.,4.8
1979-08-03 09:29:21.850 ,7,0,,0,5.,4.8,0.,4.8,,0,0.,4.8,0.,4.8
1979-08-03 09:29:26.650 ,7,0,,0,0.,4.8,0.,4.8,,0,0.,4.8,0.,4.8
1979-08-03 09:29:31.450 ,7,0,,0,0.,4.8,0.,4.8,,0,0.,4.8,0.,4.8
1979-08-03 09:29:36.250 ,7,0,,0,1.,4.8,0.,4.8,,0,0.,4.8,0.,4.8
1979-08-03 09:29:41.050 ,7,0,,0,1.,4.8,0.,4.8,,0,0.,4.8,0.,4.8
1979-08-03 09:29:45.850 ,7,0,,0,4.,4.8,0.,4.8,,0,0.,4.8,0.,4.8
1979-08-03 09:29:50.650 ,7,0,,0,11.,4.8,0.,4.8,,0,0.,4.8,0.,4.8
1979-08-03 09:29:55.450 ,7,0,,0,14.,4.8,0.,4.8,,0,0.,4.8,0.,4.8
1979-08-03 09:30:00.250 ,7,0,,0,9.,4.8,0.,4.8,,0,0.,4.8,0.,4.8
1979-08-03 09:30:05.050 ,7,0,,0,11.,4.8,0.,4.8,,0,0.,4.8,0.,4.8
1979-08-03 09:30:09.850 ,7,0,,0,10.,4.8,0.,4.8,,0,0.,4.8,0.,4.8
1979-08-03 09:30:14.650 ,7,0,,0,0.,4.8,0.,4.8,,0,0.,4.8,0.,4.8
1979-08-03 09:30:19.450 ,7,0,,0,0.,4.8,0.,4.8,,0,0.,4.8,0.,4.8
1979-08-03 09:30:24.250 ,6,0,,0,0.,4.8,0.,4.8,,0,0.,4.8,0.,4.8
1979-08-03 09:30:29.050 ,6,0,,0,0.,4.8,0.,4.8,,0,0.,4.8,0.,4.8
1979-08-03 09:30:33.850 ,6,0,,0,0.,4.8,0.,4.8,,0,0.,4.8,0.,4.8
1979-08-03 09:30:38.650 ,6,0,,0,3.,4.8,0.,4.8,,0,0.,4.8,0.,4.8
1979-08-03 09:30:43.450 ,6,0,,0,3.,4.8,0.,4.8,,0,0.,4.8,0.,4.8
1979-08-03 09:30:48.250 ,6,0,,0,2.,4.8,0.,4.8,,0,0.,4.8,0.,4.8
1979-08-03 09:30:53.050 ,6,0,,0,3.,4.8,0.,4.8,,0,0.,4.8,0.,4.8
1979-08-03 09:30:57.850 ,6,0,,0,2.,4.8,0.,4.8,,0,0.,4.8,0.,4.8
1979-08-03 09:31:02.650 ,6,0,,0,0.,4.8,0.,4.8,,0,0.,4.8,0.,4.8
1979-08-03 09:31:07.450 ,6,0,,0,0.,4.8,0.,4.8,,0,0.,4.8,0.,4.8
1979-08-03 09:31:12.250 ,5,0,,0,1.,4.8,0.,4.8,,0,0.,4.8,0.,4.8